Location: Aultman
(40.9284°N, 81.4173°W)
Time: 09:36:47
(UTC+00:00)

Cosmos 1626 Rocket - Pass Details

Date: 24 January 2021
Orbit: 603 x 631 km, 82.5° (Epoch: 02 March)

Event Time Altitude Azimuth Distance (km) Brightness Sun altitude
Rises 23:41:23 0° 188° (S) 2,867 7.3 -12.9°
Reaches altitude 10° 23:43:35 10° 189° (S) 1,971 6.4 -13.3°
Maximum altitude 23:47:57 84° 277° (W) 629 3.6 -14.1°
Drops below altitude 10° 23:52:24 10° 6° (N) 2,004 6.0 -14.9°
Sets 23:54:39 0° 8° (N) 2,920 6.8 -15.4°
